Zurück zum Katalog

NUSAT-44 MARIA MITCHELL

AktivWissenschaftSSO
NORAD 59122·PAYLOAD·🇦🇷 Argentina

Gestartet Mar 4, 2024 von Vandenberg Space Force Base

Loading…

Nächste Überflüge (nächste 24 Stunden)

TLE

AktuellSource: Space-Track

Epoche: Sep 14, 2026, 22:39 UTC

1 59122U 24043AA  26257.94408505  .00010329  00000-0  36129-3 0  9998
2 59122  97.5575  39.6341 0004005 277.3113  82.7672 15.29717877140997

Verfolge NUSAT-44 MARIA MITCHELL in Echtzeit mit AllMySat

Download on the App Store